Location: Syracuse
(43.0480°N, 76.1480°W)
Time: 20:41:19
(UTC-04:00)

Daily predictions for brighter satellites

Satellite Brightness Start Highest point End
(mag) Time Altitude Azimuth Time Altitude Azimuth Time Altitude Azimuth
CENTAUR R/B 3.4 20:59:33 10° SSE 21:04:14 24° ESE 21:09:21 10° ENE
Cosmos 990 Rocket 4.0 20:59:28 10° S 21:04:36 66° ESE 21:09:49 10° NNE
ISS -3.0 21:05:57 10° SSW 21:08:50 29° SE 21:11:43 10° ENE
ATLAS 5 CENTAUR R/B 3.5 21:06:19 10° NNW 21:11:29 31° NE 21:17:06 10° ESE
SAR-Lupe-4 4.2 21:08:19 10° SE 21:11:39 38° ENE 21:15:01 10° N
Tsikada Rocket 4.1 21:08:21 10° S 21:14:35 83° W 21:20:48 10° N
Cosmos 1869 Rocket 4.2 21:12:19 10° SSE 21:16:15 35° E 21:20:13 10° NNE
YAOGAN 6 2.6 21:14:02 10° SSE 21:17:43 71° ENE 21:21:25 10° N
Tiangong 2 1.7 21:19:37 10° W 21:22:43 44° SSW 21:25:25 12° SE
USA 186 4.0 21:21:28 10° SW 21:23:33 20° W 21:25:45 10° NW
SPOT 5 4.1 21:19:35 10° SE 21:24:14 31° ENE 21:28:50 10° N
Aureole 3 3.6 21:22:53 10° SSE 21:25:36 28° E 21:28:13 10° NNE
Cosmos 2221 Rocket 4.0 21:21:59 10° N 21:26:14 44° ENE 21:30:26 10° SSE
Spot 1 4.4 21:22:14 10° SSE 21:26:59 87° ENE 21:32:03 10° NNW
Meteor 2-3 Rocket 3.8 21:22:14 10° S 21:27:58 87° E 21:33:40 10° N
GPS 2-04 Rocket1 3.7 21:25:25 10° SW 21:28:29 25° S 21:30:49 14° SE
Cosmos 2084 3.4 21:25:23 10° NNW 21:29:10 62° NE 21:32:31 14° SE
ARGOS 3.8 21:24:50 10° SE 21:29:44 40° ENE 21:34:42 10° N
Cosmos 1782 3.5 21:27:16 10° N 21:31:02 38° ENE 21:34:14 13° SE
Helios 1B rocket 2.4 21:27:03 10° NNE 21:31:11 85° ESE 21:35:17 10° SSW
SAR-Lupe-1 4.2 21:29:35 10° SSE 21:33:03 60° ENE 21:36:35 10° N
Cosmos 1634 Rocket 4.0 21:26:52 10° N 21:33:11 78° E 21:39:30 10° SSE
Cosmos 2082 Rocket 4.5 21:30:30 10° NW 21:34:39 21° W 21:38:48 10° SSW
H-2A R/B 3.1 21:32:37 12° SE 21:36:50 31° ENE 21:41:29 10° N
Cosmos 1937 Rocket 4.4 21:35:34 10° SW 21:40:34 52° WNW 21:45:37 10° N
CZ-4B DEB 2.9 21:37:59 10° S 21:40:52 63° WSW 21:43:48 10° NNW
Lacrosse 4 Rocket 2.8 21:37:16 10° N 21:41:14 29° NE 21:44:24 14° ESE
Cosmos 2344 4.1 21:35:29 10° S 21:42:16 36° ESE 21:49:31 10° NE
Cosmos 1408 3.0 21:42:06 12° SSE 21:45:20 44° E 21:48:55 10° NNE
Meteor 1-29 3.2 21:42:43 10° N 21:46:13 75° WNW 21:49:41 10° SSW
Cosmos 1825 2.5 21:45:47 13° SSE 21:48:58 46° E 21:52:36 10° NNE
Cosmos 1862 4.3 21:48:46 18° SE 21:50:46 28° E 21:54:12 10° NNE
Cosmos 158 Rocket 4.1 21:47:17 10° NNW 21:52:06 55° ENE 21:55:29 19° SE
TIMED 4.5 21:47:49 10° SSW 21:52:11 88° ESE 21:56:36 10° NNE
Shenzhou-11 Module 3.6 21:51:23 10° W 21:53:55 23° SSW 21:55:05 18° S
Resurs 01 Rocket 4.4 21:52:32 10° WSW 21:54:50 14° W 21:57:07 10° WNW
H-2A R/B 4.1 22:00:01 11° E 22:01:41 13° ENE 22:03:33 10° NE
Molniya-1 4.1 22:00:33 10° SW 22:03:05 21° NNE 22:03:47 10° NNE
MetOp-A 4.2 22:01:47 13° S 22:06:31 80° WSW 22:11:54 10° NNW
COSMOS 2455 3.1 22:01:26 10° SW 22:07:26 72° WNW 22:13:28 10° NNE
ERS-1 Rocket 3.3 22:03:26 11° S 22:08:11 64° WSW 22:13:12 10° NNW
Cosmos 2279 Rocket 4.0 22:01:57 10° N 22:08:16 86° E 22:13:33 15° S
Cosmos 1048 Rocket 4.0 22:07:08 10° NNW 22:12:30 83° ENE 22:15:53 23° SSE
Cosmos 1943 Rocket 2.1 22:07:04 10° SSW 22:12:38 71° ESE 22:18:10 10° NNE
Cosmos 2263 4.2 22:10:10 10° SSW 22:15:57 88° WNW 22:21:43 10° NNE
deb Kosmos-1763 4.0 22:14:57 10° NNW 22:18:44 89° W 22:20:24 32° SSE
DMSP B5D2-2 4.4 22:17:41 10° NNE 22:22:40 44° E 22:25:06 27° SSE
USA 215 3.4 22:19:36 22° SSE 22:23:58 67° SW 22:30:32 10° NW
Cosmos 1340 2.7 22:20:24 10° NNW 22:24:12 80° W 22:25:58 30° S
Milstar 3 4.0 22:16:51 10° SW 22:25:10 27° S 22:27:31 23° SSE
Okean 1-7 4.2 22:21:24 10° NNW 22:25:33 41° W 22:29:17 12° SSW
Lacrosse 5 rocket 1.7 22:26:34 10° WSW 22:30:05 55° NW 22:33:44 10° NE
Cosmos 2369 Rocket 3.1 22:25:04 10° SW 22:30:33 50° WNW 22:36:06 10° NNE
Cosmos 2251 Rocket 4.4 22:26:45 10° N 22:31:33 35° ENE 22:33:44 25° ESE
Cosmos 1833 4.2 22:27:32 10° NNW 22:33:22 84° ENE 22:36:20 30° SSE
SPOT 1/Viking Rocket 3.5 22:31:51 26° SSE 22:34:50 86° WSW 22:40:05 10° NNW
Cosmos 1606 3.9 22:31:29 10° NNW 22:34:59 37° W 22:37:22 18° SSW
Landsat 7 3.8 22:34:09 33° SSE 22:36:13 69° ENE 22:40:58 10° N
SL-08 RB Rocket 4.1 22:35:00 23° S 22:37:47 60° W 22:42:25 10° NNW
DNEPR-1 R/B 4.0 22:33:53 10° SW 22:39:04 70° NW 22:43:31 10° NNE
Intercosmos 25 Rocket 4.3 22:31:49 10° N 22:39:43 77° E 22:42:06 33° SSE
GEOS 3 Rocket 3.7 22:38:07 31° ESE 22:40:37 68° NE 22:45:51 10° NNW
ISS -2.4 22:42:08 10° W 22:45:13 40° NNW 22:48:19 10° NE
Meteor 1-27 Rocket 3.9 22:40:10 10° NNW 22:45:55 71° W 22:49:13 26° S
Cosmos 1269 Rocket 4.5 22:40:49 10° NNW 22:45:59 55° WSW 22:48:45 26° S
BREEZE-M DEB (TANK) 4.2 22:47:18 28° ESE 22:47:18 28° ESE 22:55:20 10° ENE
Cosmos 2297 Rocket 4.4 22:44:36 10° N 22:47:51 15° NE 22:51:05 10° E
Cosmos 1733 Rocket 3.0 22:45:52 31° SSW 22:47:55 82° W 22:52:16 10° N
Sich 1 Rocket 4.0 22:50:27 40° ESE 22:50:57 42° E 22:55:07 10° NNE
Terra 1.8 22:49:48 41° SE 22:51:21 68° ENE 22:56:06 10° N
CENTAUR R/B 3.0 22:48:08 10° SW 22:54:10 64° NW 23:01:06 10° NNE
Nimbus 7 Rocket 4.5 22:49:00 10° NNE 22:54:55 77° WNW 22:59:42 16° SSW
ATLAS 5 CENTAUR R/B 2.6 22:50:39 10° NW 22:56:36 62° WSW 22:59:28 33° S
Cosmos 1437 3.0 22:54:31 10° N 22:57:24 60° NE 22:57:24 60° NE
Cosmos 1346 4.3 22:59:15 10° N 23:00:58 33° NNE 23:00:58 33° NNE
SPOT 5 4.2 22:58:44 18° SSW 23:02:09 37° W 23:07:04 10° NNW
Cosmos 2026 Rocket 4.2 23:04:33 38° SE 23:06:26 51° E 23:12:27 10° NNE
Meteor 2-20 4.4 23:03:29 29° S 23:06:47 90° W 23:12:56 10° N
Meteor 2-20 Rocket 4.4 23:04:52 36° S 23:07:27 73° E 23:13:34 10° NNE
Cosmos 1975 Rocket 3.7 23:06:13 10° N 23:10:27 40° ENE 23:10:46 40° E
Cosmos 1867 3.5 23:05:53 10° NNW 23:11:23 78° ENE 23:12:56 48° SE
Cosmos 1656 Rocket 3.6 23:10:03 25° SSW 23:13:21 84° WNW 23:18:55 10° NNE
H-2A R/B 3.3 23:13:15 22° SSW 23:16:07 37° W 23:21:04 10° NNW
Lacrosse 4 Rocket 2.6 23:15:56 10° NW 23:19:58 33° WSW 23:20:44 31° SW
CARTOSAT-1 3.9 23:19:18 49° SW 23:20:06 58° W 23:24:23 10° NNW
CZ-2C R/B 4.3 23:19:37 24° E 23:20:41 26° ENE 23:24:46 10° N
Spot 4 3.8 23:22:13 58° SE 23:23:01 70° ENE 23:27:50 10° N
CZ-4 R/B 3.6 23:18:52 10° NNE 23:23:31 68° ESE 23:23:54 64° SE
Cosmos 1674 Rocket 4.4 23:19:46 10° NNW 23:23:52 42° W 23:24:54 35° SW
Cosmos 1378 Rocket 3.5 23:21:04 10° NNW 23:25:31 76° W 23:26:03 66° SSW
S3M 4.5 23:19:57 10° N 23:25:47 44° ENE 23:27:16 38° ESE
Cosmos 494 Rocket 4.1 23:22:45 10° NNW 23:27:56 64° WSW 23:29:03 50° SSW
SL-19 R/B 4.4 23:22:14 10° NNE 23:28:17 89° ESE 23:30:52 38° SSW
Meteor 1-14 Rocket 4.2 23:26:51 46° S 23:28:44 84° E 23:34:34 10° NNE
Cosmos 1092 Rocket 4.3 23:27:21 28° SSW 23:30:39 63° W 23:36:45 10° N
ATLAS CENTAUR R/B 2.3 23:33:00 35° NE 23:33:00 35° NE 23:35:22 10° NE
H-2A R/B 2.1 23:37:08 60° WSW 23:37:11 60° WSW 23:41:16 10° NNW
Cosmos 2227 Rocket 3.1 23:32:39 10° N 23:37:55 38° ENE 23:39:30 32° E
Cosmos 1627 Rocket 4.5 23:35:54 42° SSW 23:38:14 83° W 23:44:37 10° N
CZ-2C R/B 3.5 23:37:27 10° NNE 23:41:46 33° E 23:41:46 33° E
Cosmos 2219 3.2 23:36:42 10° NNW 23:42:28 75° WSW 23:43:36 57° S
Cosmos 1553 Rocket 4.0 23:38:31 10° N 23:44:54 68° E 23:46:20 52° SE
CZ-4B R/B 3.2 23:40:37 10° NNE 23:45:38 85° ESE 23:46:05 74° S
APEX 4.2 23:41:53 10° NNW 23:46:09 40° NE 23:46:09 40° NE
Cosmos 1812 3.2 23:42:41 10° NNW 23:46:07 59° WNW 23:46:07 59° WNW
Gbstr 26 Del rocket 3.9 23:43:56 10° NW 23:47:59 39° NNE 23:48:43 35° NE
CZ-4C R/B 3.5 23:53:17 78° NW 23:53:17 78° NW 23:57:15 10° NNW
